Regional Weather Roundup
Issued by NWS Mt. Holly, NJ

Home | Current Version | Previous Version | Text Only | Print | Product List | Glossary On
Versions: 1 2 3 4 5 6 7 8 9 10 11 12 13 14 15 16 17 18 19 20 21 22 23 24 25 26 27 28 29 30 31 32 33 34 35 36 37 38 39 40 41 42 43 44 45 46 47 48 49 50
000
ASUS41 KPHI 011810
RWRPHI

REGIONAL WEATHER ROUNDUP
NATIONAL WEATHER SERVICE MOUNT HOLLY NJ
200 PM EDT MON SEP 01 2014

NOTE:  "FAIR" INDICATES FEW OR NO CLOUDS BELOW 12,000 FEET WITH NO
SIGNIFICANT WEATHER AND/OR OBSTRUCTIONS TO VISIBILITY.

 * = STATION DOES NOT REPORT PRECIPITATION (E.G. RAIN, SNOW, ETC.)
        OR FOG.

NJZ015>026-011900-
SOUTHERN NEW JERSEY

CITY           SKY/WX    TMP DP  RH WIND       PRES   REMARKS
POMONA         MOSUNNY   86  70  58 SW7       29.98F HX  90
6HR MIN TEMP:  74; 6HR MAX TEMP:  88;

RIO GRANDE*    SUNNY     88  70  55 W7        30.00F HX  92
MILLVILLE      PTSUNNY   86  72  62 W6        29.98F HX  92
WRIGHTSTOWN    MOSUNNY   86  73  66 W6        29.95F HX  92
MOUNT HOLLY    MOSUNNY   87  72  60 VRB6      29.97F HX  93
TRENTON        PTSUNNY   85  72  65 SW8       29.97F HX  91
6HR MIN TEMP:  74; 6HR MAX TEMP:  85;


$$
NJZ001>014-011900-
NORTHERN NEW JERSEY

CITY           SKY/WX    TMP DP  RH WIND       PRES   REMARKS
SUSSEX         CLOUDY    84  70  62 CALM      29.98F
ANDOVER*         N/A     83  69  62 SW7       29.99F
MORRISTOWN     PTSUNNY   84  70  61 S3        29.97F
NEWARK         PTSUNNY   89  69  51 S7        29.95F HX  93
TETERBORO      CLOUDY    87  70  56 S9        29.94F HX  92
CALDWELL       PTSUNNY   85  68  56 VRB6      29.97F
SOMERVILLE     PTSUNNY   86  70  58 VRB3      29.95F HX  90
ALLAIRE*       PTSUNNY   84  72  65 SW8       29.98F
TOMS RIVER*    PTSUNNY   88  72  58 SW7       29.98F HX  94

$$
PAZ043-044-047-054-055-060>062-066>071-011900-
EASTERN PENNSYLVANIA

CITY           SKY/WX    TMP DP  RH WIND       PRES   REMARKS
PHILADELPHIA   MOSUNNY   87  70  56 SW10      29.98F HX  92
6HR MIN TEMP:  75; 6HR MAX TEMP:  88;

NORTH PHILA    PTSUNNY   89  70  53 W7        29.98F HX  94
BLUE BELL      MOSUNNY   86  73  66 W6        29.97F HX  93
DOYLESTOWN     PTSUNNY   84  70  62 SW9       29.97F
QUAKERTOWN*    CLOUDY    84  72  65 MISG      30.00F
POTTSTOWN      CLOUDY    83  70  64 W5        30.00F
LANCASTER      MOSUNNY   83  69  62 SW5       29.99F
COATESVILLE    PTSUNNY   82  77  83 SW6       30.01F HX  91
READING        CLOUDY    86  71  60 W7        29.97F HX  91
6HR MIN TEMP:  74; 6HR MAX TEMP:  87;

ALLENTOWN      PTSUNNY   86  68  54 SW8       29.98F
6HR MIN TEMP:  73; 6HR MAX TEMP:  87;

MOUNT POCONO   PTSUNNY   78  67  68 W9        30.05F
6HR MIN TEMP:  68; 6HR MAX TEMP:  79;

HAZLETON       CLOUDY    81  70  69 NW3       30.06F
WILKES BARRE   CLOUDY    82  67  60 SW10      30.00F

$$
DEZALL-MDZ008-012-015-019-020-011900-
DELAWARE AND EASTERN MARYLAND

CITY           SKY/WX    TMP DP  RH WIND       PRES   REMARKS
WILMINGTON     PTSUNNY   85  73  67 S6        29.98F HX  91
6HR MIN TEMP:  74; 6HR MAX TEMP:  86;

DOVER          MOSUNNY   89  73  59 SW6       29.97F HX  96
GEORGETOWN     PTSUNNY   90  73  57 S10       29.99F HX  98
6HR MIN TEMP:  78; 6HR MAX TEMP:  90; 6HR PCP:  0.01;

EASTON         MOSUNNY   90  75  62 SW12      30.02F HX 100
PATUXENT       SUNNY     91  70  49 W10       29.98F HX  96
OCEAN CITY     MOSUNNY   85  75  72 S12G17    30.00F HX  93
WALLOPS ISLAND MOSUNNY   88  78  72 SW15      30.01F HX 101
CAMBRIDGE      SUNNY     88  73  62 SW6       29.99F HX  96
SALISBURY      MOSUNNY   91  72  53 W12G20    29.99F HX  98

$$
PAZ001-021-NYZ056-072-MDZ011-DCZ001-011900-
OTHER NEARBY LOCATIONS

CITY           SKY/WX    TMP DP  RH WIND       PRES   REMARKS
HARRISBURG     PTSUNNY   83  70  64 CALM      29.98F
STATE COLLEGE  CLOUDY    77  70  78 CALM      30.02F
WILLIAMSPORT   PTSUNNY   83  70  64 SE6       29.96F
BINGHAMTON     CLOUDY    76  67  73 S9        30.02F
NEW YORK CITY  CLOUDY    84  69  60 VRB3      29.99F
BALTIMORE      PTSUNNY   88  71  57 W5        29.97F HX  94
WASHINGTON DC  PTSUNNY   87  73  62 S9        29.98F HX  94

$$


USA.gov is the U.S. government's official web portal to all federal, state and local government web resources and services.